| time (UTC) | temp C | wind direction | speed KPH | gust KPH | rain 1hr cm | rain 24hr cm | rain mn cm | humidity % | barometer mb |
| 20260503224527 | 15 | 223 | 16.1 | 20.9 | 0.00 | 0.00 | 0.00 | 81 | 1016.3 |
| 20260503223026 | 15 | 237 | 11.3 | 19.3 | 0.00 | 0.00 | 0.00 | 80 | 1016.2 |
| 20260503221528 | 15 | 218 | 14.5 | 20.9 | 0.00 | 0.00 | 0.00 | 80 | 1016.1 |
| 20260503220022 | 15 | 214 | 12.9 | 22.5 | 0.00 | 0.00 | 0.00 | 81 | 1016.1 |
| 20260503214525 | 15 | 186 | 11.3 | 22.5 | 0.00 | 0.00 | 0.00 | 82 | 1015.9 |
| 20260503213029 | 15 | 178 | 11.3 | 24.1 | 0.00 | 0.00 | 0.00 | 81 | 1015.9 |
| 20260503211536 | 15 | 215 | 12.9 | 22.5 | 0.00 | 0.00 | 0.00 | 81 | 1015.7 |
| 20260503210018 | 15 | 188 | 11.3 | 24.1 | 0.00 | 0.00 | 0.00 | 82 | 1015.5 |
| 20260503204521 | 15 | 219 | 12.9 | 22.5 | 0.00 | 0.00 | 0.00 | 83 | 1015.4 |
| 20260503203023 | 15 | 230 | 9.7 | 20.9 | 0.00 | 0.00 | 0.00 | 83 | 1015.2 |
| 20260503201525 | 15 | 227 | 8.0 | 19.3 | 0.00 | 0.00 | 0.00 | 82 | 1014.8 |
| 20260503200030 | 15 | 213 | 11.3 | 19.3 | 0.00 | 0.00 | 0.00 | 82 | 1014.8 |
| 20260503194518 | 15 | 195 | 6.4 | 19.3 | 0.00 | 0.00 | 0.00 | 84 | 1014.7 |
| 20260503193035 | 16 | 225 | 11.3 | 19.3 | 0.00 | 0.00 | 0.00 | 82 | 1014.6 |
| 20260503191526 | 16 | 185 | 8.0 | 14.5 | 0.00 | 0.00 | 0.00 | 80 | 1014.4 |
| 20260503190034 | 16 | 206 | 8.0 | 12.9 | 0.00 | 0.00 | 0.00 | 78 | 1014.4 |
| 20260503184529 | 16 | 199 | 9.7 | 19.3 | 0.00 | 0.00 | 0.00 | 76 | 1014.5 |
| 20260503183021 | 17 | 185 | 9.7 | 19.3 | 0.00 | 0.00 | 0.00 | 76 | 1014.4 |
| 20260503181526 | 17 | 175 | 11.3 | 19.3 | 0.00 | 0.00 | 0.00 | 75 | 1014.3 |
| 20260503180026 | 17 | 204 | 9.7 | 20.9 | 0.00 | 0.00 | 0.00 | 75 | 1014.3 |
| 20260503174528 | 17 | 171 | 9.7 | 16.1 | 0.00 | 0.00 | 0.00 | 75 | 1014.3 |
| 20260503173028 | 17 | 157 | 8.0 | 17.7 | 0.00 | 0.00 | 0.00 | 73 | 1014.3 |
| 20260503171526 | 17 | 188 | 8.0 | 16.1 | 0.00 | 0.00 | 0.00 | 72 | 1014.4 |
| 20260503081509 | 16 | 182 | 1.6 | 9.7 | 0.00 | 0.00 | 0.00 | 80 | 1015.3 |
| 20260503071535 | 15 | 184 | 1.6 | 9.7 | 0.00 | 0.00 | 0.00 | 81 | 1015.2 |
| 20260503054526 | 14 | 176 | 3.2 | 6.4 | 0.00 | 0.00 | 0.00 | 85 | 1014.8 |
| 20260503053016 | 14 | 163 | 1.6 | 6.4 | 0.00 | 0.00 | 0.00 | 84 | 1014.7 |
| 20260503051526 | 14 | 172 | 1.6 | 4.8 | 0.00 | 0.00 | 0.00 | 85 | 1014.6 |
| 20260503050028 | 14 | 172 | 1.6 | 6.4 | 0.00 | 0.00 | 0.00 | 85 | 1014.7 |
| 20260503044529 | 14 | 186 | 3.2 | 4.8 | 0.00 | 0.00 | 0.00 | 85 | 1014.7 |
| 20260503043019 | 15 | 201 | 3.2 | 9.7 | 0.00 | 0.00 | 0.00 | 85 | 1014.7 |
| 20260503041524 | 14 | 173 | 1.6 | 6.4 | 0.00 | 0.00 | 0.00 | 85 | 1014.9 |
| 20260503040024 | 14 | 183 | 3.2 | 4.8 | 0.00 | 0.00 | 0.00 | 85 | 1014.8 |
| 20260503034528 | 15 | 183 | 3.2 | 8.0 | 0.00 | 0.00 | 0.00 | 85 | 1014.9 |
| 20260503033023 | 14 | 166 | 1.6 | 8.0 | 0.00 | 0.00 | 0.00 | 85 | 1014.9 |
| 20260503031523 | 14 | 176 | 1.6 | 8.0 | 0.00 | 0.00 | 0.00 | 85 | 1015.0 |
| 20260503030025 | 14 | 176 | 4.8 | 6.4 | 0.00 | 0.00 | 0.00 | 85 | 1015.1 |
| 20260503024526 | 15 | 186 | 3.2 | 4.8 | 0.00 | 0.00 | 0.00 | 85 | 1015.1 |
| 20260503023025 | 15 | 180 | 3.2 | 8.0 | 0.00 | 0.00 | 0.00 | 85 | 1015.1 |
| 20260503021518 | 15 | 181 | 1.6 | 8.0 | 0.00 | 0.00 | 0.00 | 85 | 1015.2 |
| 20260503020024 | 15 | 179 | 4.8 | 6.4 | 0.00 | 0.00 | 0.00 | 86 | 1015.3 |
| 20260503014524 | 15 | 184 | 3.2 | 8.0 | 0.00 | 0.00 | 0.00 | 86 | 1015.3 |
| 20260503013026 | 15 | 186 | 6.4 | 11.3 | 0.00 | 0.00 | 0.00 | 87 | 1015.5 |
| 20260503011529 | 15 | 186 | 4.8 | 6.4 | 0.00 | 0.00 | 0.00 | 87 | 1015.7 |
| 20260503010025 | 15 | 175 | 3.2 | 8.0 | 0.00 | 0.00 | 0.00 | 87 | 1015.7 |
| 20260503004507 | 15 | 183 | 3.2 | 6.4 | 0.00 | 0.00 | 0.00 | 88 | 1015.8 |
| 20260503003027 | 15 | 187 | 3.2 | 9.7 | 0.00 | 0.00 | 0.00 | 88 | 1016.1 |
| 20260503001527 | 15 | 174 | 3.2 | 8.0 | 0.00 | 0.00 | 0.00 | 88 | 1016.1 |
| 20260503000017 | 15 | 178 | 4.8 | 9.7 | 0.00 | 0.00 | 0.00 | 88 | 1016.3 |
| 20260502234533 | 15 | 194 | 4.8 | 9.7 | 0.00 | 0.00 | 0.00 | 89 | 1016.2 |
| 20260502233006 | 15 | 184 | 3.2 | 11.3 | 0.00 | 0.00 | 0.00 | 89 | 1016.4 |
| 20260502231511 | 15 | 184 | 4.8 | 11.3 | 0.00 | 0.00 | 0.00 | 89 | 1016.5 |
| 20260502230022 | 15 | 186 | 4.8 | 8.0 | 0.00 | 0.00 | 0.00 | 89 | 1016.5 |